Palmdale, CA

1:28 AM PDT on June 18, 2018 (GMT -0700)
Palmdale Af Plant 42

Weather History for KPMD - October, 2017

Change the Weather History Date:

Monday, October 9, 2017

  Actual Average Record
Temperature  
Mean Temperature 61 °F 66 °F  
Max Temperature 74 °F 81 °F 101 °F (1996)
Min Temperature 47 °F 50 °F 33 °F (1949)
Degree Days  
Heating Degree Days 4 2  
Month to date heating degree days 15 15  
Since 1 July heating degree days 34 27  
Cooling Degree Days 0 3  
Month to date cooling degree days 19 33  
Year to date cooling degree days 2219 1790  
Growing Degree Days 11 (Base 50)    
Moisture  
Dew Point 15 °F    
Average Humidity 34    
Maximum Humidity 59    
Minimum Humidity 9    
Precipitation  
Precipitation 0.00 in 0.02 in 0.23 in (1960)
Month to date precipitation 0.00 0.11  
Year to date precipitation 4.56 5.96  
Snow  
Snow 0.00 in - 0.00 in (1973)
Month to date snowfall 0.0  
Since 1 July snowfall 0.0  
Since 1 September snowfall 0.0  
Snow Depth 0.00 in    
Sea Level Pressure  
Sea Level Pressure 30.01 in    
Wind  
Wind Speed 13 mph (East)    
Max Wind Speed 31 mph    
Max Gust Speed 37 mph    
Visibility 10 miles    
Events      
T = Trace of Precipitation, MM = Missing Value Source: NWS Daily Summary

Daily Weather History Graph

Daily Weather History Graph

Search for Another Location

Airport or City:

Astronomy

Oct. 09, 2017 Rise Set
Actual Time 6:53 AM PDT 6:24 PM PDT
Civil Twilight 6:28 AM PDT 6:50 PM PDT
Nautical Twilight 5:58 AM PDT 7:19 PM PDT
Astronomical Twilight 5:29 AM PDT 7:48 PM PDT
Moon 9:47 PM PDT (10/9) 11:01 AM PDT (10/9)
Length of Visible Light 12h 22m
Length of Day
11h 31m
Waning Gibbous, 80% of the Moon is Illuminated
Oct 9
Waning Gibbous
Oct 12
Last Quarter
Oct 19
New
Oct 27
First Quarter
Nov 3
Full

Hourly Weather History & Observations

Time (PDT) Temp. Dew Point Humidity Pressure Visibility Wind Dir Wind Speed Gust Speed Precip Events Conditions
12:53 AM 63.0 °F 43.0 °F 48% 29.82 in 10.0 mi NNE 4.6 mph - N/A   Clear
1:53 AM 55.9 °F 41.0 °F 57% 29.87 in 10.0 mi East 10.4 mph - N/A   Clear
2:53 AM 54.0 °F 35.1 °F 49% 29.90 in 10.0 mi East 8.1 mph - N/A   Clear
3:53 AM 55.9 °F 23.0 °F 28% 29.92 in 10.0 mi East 11.5 mph - N/A   Clear
4:53 AM 55.9 °F 17.1 °F 22% 29.95 in 10.0 mi East 12.7 mph - N/A   Clear
5:53 AM 53.1 °F 17.1 °F 24% 29.99 in 10.0 mi East 12.7 mph - N/A   Clear
6:53 AM 50.0 °F 17.1 °F 27% 30.04 in 10.0 mi East 8.1 mph - N/A   Clear
7:53 AM 57.0 °F 14.0 °F 18% 30.06 in 10.0 mi East 10.4 mph - N/A   Clear
8:53 AM 62.1 °F 10.9 °F 13% 30.07 in 10.0 mi East 20.7 mph - N/A   Clear
9:53 AM 64.0 °F 12.0 °F 13% 30.08 in 10.0 mi East 25.3 mph 31.1 mph N/A   Clear
10:53 AM 66.9 °F 12.9 °F 12% 30.07 in 10.0 mi East 24.2 mph 31.1 mph N/A   Clear
11:53 AM 69.1 °F 12.0 °F 11% 30.07 in 10.0 mi East 24.2 mph 33.4 mph N/A   Clear
12:53 PM 71.1 °F 10.9 °F 10% 30.05 in 10.0 mi East 16.1 mph 29.9 mph N/A   Clear
1:53 PM 72.0 °F 8.1 °F 8% 30.03 in 10.0 mi East 24.2 mph 34.5 mph N/A   Clear
2:53 PM 72.0 °F 9.0 °F 9% 30.02 in 10.0 mi ENE 17.3 mph 26.5 mph N/A   Clear
3:53 PM 72.0 °F 9.0 °F 9% 30.02 in 10.0 mi East 17.3 mph 26.5 mph N/A   Clear
4:53 PM 72.0 °F 8.1 °F 8% 30.00 in 10.0 mi East 15.0 mph - N/A   Clear
5:53 PM 69.1 °F 9.0 °F 10% 30.02 in 10.0 mi East 13.8 mph - N/A   Clear
6:53 PM 62.1 °F 10.0 °F 13% 30.04 in 10.0 mi East 9.2 mph - N/A   Clear
7:53 PM 57.9 °F 10.9 °F 16% 30.04 in 10.0 mi East 8.1 mph - N/A   Clear
8:53 PM 51.1 °F 9.0 °F 18% 30.06 in 10.0 mi ESE 9.2 mph - N/A   Clear
9:53 PM 51.1 °F 10.9 °F 20% 30.06 in 10.0 mi ESE 5.8 mph - N/A   Clear
10:53 PM 51.1 °F 8.1 °F 18% 30.06 in 10.0 mi SE 3.5 mph - N/A   Clear
11:53 PM 48.0 °F 9.0 °F 21% 30.05 in 10.0 mi Variable 3.5 mph - N/A   Clear